EN

Hourly Weather Lagino

Today, 3 August, Tuesday

Time Temperature Precipitation Wind Pressure Humidity
00:00 +19°C° 0 mm 6 mps 736 mmHg 92%
01:00 +17°C° 0 mm 6 mps 736 mmHg 91%
02:00 +16°C° 0 mm 7 mps 736 mmHg 90%
03:00 +16°C° 0 mm 7 mps 737 mmHg 88%
04:00 +16°C° 0 mm 7 mps 737 mmHg 86%
05:00 +16°C° 0 mm 6 mps 738 mmHg 84%
06:00 +17°C° 0 mm 6 mps 738 mmHg 75%
07:00 +18°C° 0 mm 7 mps 739 mmHg 66%
08:00 +20°C° 0 mm 7 mps 739 mmHg 57%
09:00 +21°C° 0 mm 6 mps 740 mmHg 53%
10:00 +22°C° 0 mm 6 mps 740 mmHg 49%
11:00 +24°C° 0 mm 6 mps 741 mmHg 45%
12:00 +23°C° 0 mm 6 mps 741 mmHg 44%
13:00 +23°C° 0 mm 6 mps 741 mmHg 44%
14:00 +23°C° 0 mm 5 mps 741 mmHg 43%
15:00 +23°C° 0 mm 6 mps 741 mmHg 42%
16:00 +23°C° 0 mm 6 mps 741 mmHg 41%
17:00 +23°C° 0 mm 6 mps 741 mmHg 40%
18:00 +22°C° 0 mm 5 mps 741 mmHg 48%
19:00 +20°C° 0 mm 4 mps 742 mmHg 55%
20:00 +18°C° 0 mm 3 mps 742 mmHg 63%
21:00 +17°C° 0 mm 3 mps 742 mmHg 69%
22:00 +16°C° 0 mm 3 mps 743 mmHg 75%
23:00 +13°C° 0 mm 3 mps 743 mmHg 82%

Tomorrow, 4 August, Wednesday

Time Temperature Precipitation Wind Pressure Humidity
00:00 +13°C° 0 mm 3 mps 743 mmHg 85%
01:00 +12°C° 0 mm 3 mps 744 mmHg 88%
02:00 +11°C° 0 mm 3 mps 744 mmHg 92%
03:00 +12°C° 0 mm 3 mps 744 mmHg 90%
04:00 +12°C° 0 mm 3 mps 745 mmHg 88%
05:00 +12°C° 0 mm 3 mps 745 mmHg 87%
06:00 +14°C° 0 mm 3 mps 745 mmHg 78%
07:00 +17°C° 0 mm 4 mps 746 mmHg 69%
08:00 +19°C° 0 mm 4 mps 746 mmHg 60%
09:00 +20°C° 0 mm 4 mps 746 mmHg 52%
10:00 +21°C° 0 mm 4 mps 747 mmHg 45%
11:00 +22°C° 0 mm 5 mps 747 mmHg 38%
12:00 +23°C° 0 mm 5 mps 747 mmHg 36%
13:00 +23°C° 0 mm 5 mps 747 mmHg 33%
14:00 +25°C° 0 mm 5 mps 747 mmHg 31%
15:00 +23°C° 0 mm 4 mps 747 mmHg 34%
16:00 +22°C° 0 mm 3 mps 747 mmHg 38%
17:00 +21°C° 0 mm 3 mps 747 mmHg 42%
18:00 +19°C° 0 mm 2 mps 748 mmHg 47%
19:00 +19°C° 0 mm 1 mps 748 mmHg 53%
20:00 +16°C° 0 mm 1 mps 748 mmHg 59%
21:00 +16°C° 0 mm 1 mps 748 mmHg 60%
22:00 +15°C° 0 mm 1 mps 748 mmHg 62%
23:00 +15°C° 0 mm 1 mps 749 mmHg 63%

Day after tomorrow, 5 August, Thursday

Time Temperature Precipitation Wind Pressure Humidity
00:00 +15°C° 0 mm 1 mps 749 mmHg 63%
01:00 +15°C° 0 mm 1 mps 749 mmHg 62%
02:00 +15°C° 0 mm 1 mps 749 mmHg 61%
03:00 +15°C° 0 mm 1 mps 749 mmHg 60%
04:00 +15°C° 0 mm 1 mps 749 mmHg 60%
05:00 +16°C° 0 mm 1 mps 749 mmHg 59%
06:00 +18°C° 0 mm 1 mps 750 mmHg 54%
07:00 +19°C° 0 mm 1 mps 750 mmHg 49%
08:00 +21°C° 0 mm 1 mps 750 mmHg 44%
09:00 +22°C° 0 mm 1 mps 750 mmHg 41%
10:00 +23°C° 0 mm 2 mps 750 mmHg 37%
11:00 +24°C° 0 mm 2 mps 749 mmHg 33%
12:00 +24°C° 0 mm 2 mps 749 mmHg 33%
13:00 +24°C° 0 mm 2 mps 749 mmHg 33%
14:00 +24°C° 0 mm 2 mps 749 mmHg 34%
15:00 +23°C° 0 mm 2 mps 749 mmHg 40%
16:00 +21°C° 0 mm 3 mps 749 mmHg 47%
17:00 +20°C° 0 mm 3 mps 748 mmHg 53%
18:00 +18°C° 0.4 mm 2 mps 748 mmHg 65%
19:00 +16°C° 0.4 mm 2 mps 748 mmHg 77%
20:00 +15°C° 0.4 mm 1 mps 748 mmHg 89%
21:00 +14°C° 0.7 mm 2 mps 748 mmHg 91%
22:00 +14°C° 0.7 mm 2 mps 748 mmHg 94%
23:00 +13°C° 0.7 mm 3 mps 747 mmHg 96%

6 August, Friday

Time Temperature Precipitation Wind Pressure Humidity
00:00 +13°C° 0.6 mm 3 mps 747 mmHg 96%
01:00 +13°C° 0.6 mm 3 mps 747 mmHg 97%
02:00 +13°C° 0.6 mm 4 mps 746 mmHg 97%
03:00 +13°C° 2 mm 3 mps 746 mmHg 97%
04:00 +14°C° 2 mm 3 mps 746 mmHg 98%
05:00 +15°C° 2 mm 2 mps 746 mmHg 98%
06:00 +15°C° 0.1 mm 2 mps 746 mmHg 98%
07:00 +15°C° 0.1 mm 2 mps 746 mmHg 98%
08:00 +15°C° 0.1 mm 2 mps 746 mmHg 98%
09:00 +16°C° 0.1 mm 2 mps 746 mmHg 97%
10:00 +16°C° 0.1 mm 2 mps 746 mmHg 96%
11:00 +16°C° 0.1 mm 2 mps 747 mmHg 96%
12:00 +17°C° 0 mm 2 mps 747 mmHg 93%
13:00 +18°C° 0 mm 2 mps 747 mmHg 90%
14:00 +18°C° 0 mm 3 mps 747 mmHg 87%
15:00 +18°C° 0 mm 3 mps 747 mmHg 87%
16:00 +18°C° 0 mm 4 mps 747 mmHg 88%
17:00 +18°C° 0 mm 4 mps 747 mmHg 88%
18:00 +17°C° 0 mm 4 mps 747 mmHg 89%
19:00 +17°C° 0 mm 4 mps 747 mmHg 90%
20:00 +17°C° 0 mm 4 mps 747 mmHg 91%
21:00 +15°C° 1 mm 4 mps 747 mmHg 93%
22:00 +15°C° 1 mm 4 mps 747 mmHg 95%
23:00 +15°C° 1 mm 4 mps 747 mmHg 98%

7 August, Saturday

Time Temperature Precipitation Wind Pressure Humidity
00:00 +15°C° 1.6 mm 4 mps 747 mmHg 98%
01:00 +15°C° 1.6 mm 4 mps 746 mmHg 98%
02:00 +14°C° 1.6 mm 4 mps 746 mmHg 98%
03:00 +14°C° 1.8 mm 4 mps 746 mmHg 98%
04:00 +14°C° 1.8 mm 4 mps 746 mmHg 98%
05:00 +14°C° 1.8 mm 5 mps 746 mmHg 98%
06:00 +14°C° 1.3 mm 5 mps 746 mmHg 98%
07:00 +14°C° 1.3 mm 5 mps 746 mmHg 98%
08:00 +14°C° 1.3 mm 6 mps 745 mmHg 98%
09:00 +15°C° 0.3 mm 6 mps 745 mmHg 96%
10:00 +16°C° 0.3 mm 6 mps 745 mmHg 94%
11:00 +17°C° 0.3 mm 6 mps 745 mmHg 92%
12:00 +19°C° 0.4 mm 5 mps 745 mmHg 92%
13:00 +19°C° 0.4 mm 4 mps 745 mmHg 92%
14:00 +19°C° 0.4 mm 3 mps 745 mmHg 93%
15:00 +20°C° 0.6 mm 3 mps 745 mmHg 91%
16:00 +21°C° 0.6 mm 2 mps 745 mmHg 89%
17:00 +23°C° 0.6 mm 1 mps 745 mmHg 87%
18:00 +22°C° 1.4 mm 1 mps 745 mmHg 89%
19:00 +21°C° 1.4 mm 1 mps 745 mmHg 91%
20:00 +21°C° 1.4 mm 1 mps 745 mmHg 94%
21:00 +20°C° 1.9 mm 1 mps 745 mmHg 95%
22:00 +20°C° 1.9 mm 1 mps 745 mmHg 95%
23:00 +20°C° 1.9 mm 1 mps 745 mmHg 96%

8 August, Sunday

Time Temperature Precipitation Wind Pressure Humidity
00:00 +20°C° 0.3 mm 1 mps 745 mmHg 96%
01:00 +19°C° 0.3 mm 1 mps 745 mmHg 96%
02:00 +19°C° 0.3 mm 1 mps 745 mmHg 96%
03:00 +19°C° 0.5 mm 1 mps 745 mmHg 97%
04:00 +18°C° 0.5 mm 2 mps 745 mmHg 97%
05:00 +18°C° 0.5 mm 2 mps 746 mmHg 98%
06:00 +19°C° 0.1 mm 2 mps 746 mmHg 94%
07:00 +20°C° 0.1 mm 2 mps 746 mmHg 90%
08:00 +20°C° 0.1 mm 3 mps 747 mmHg 86%
09:00 +21°C° 0 mm 3 mps 747 mmHg 76%
10:00 +24°C° 0 mm 3 mps 747 mmHg 66%
11:00 +25°C° 0 mm 3 mps 747 mmHg 55%
12:00 +25°C° 0 mm 4 mps 747 mmHg 52%
13:00 +26°C° 0 mm 4 mps 748 mmHg 49%
14:00 +26°C° 0 mm 4 mps 748 mmHg 46%
15:00 +26°C° 0 mm 3 mps 748 mmHg 50%
16:00 +26°C° 0 mm 3 mps 748 mmHg 54%
17:00 +25°C° 0 mm 2 mps 748 mmHg 58%
18:00 +23°C° 0 mm 2 mps 748 mmHg 65%
19:00 +21°C° 0 mm 2 mps 748 mmHg 71%
20:00 +20°C° 0 mm 1 mps 748 mmHg 77%
21:00 +19°C° 0 mm 1 mps 749 mmHg 80%
22:00 +18°C° 0 mm 1 mps 749 mmHg 82%
23:00 +16°C° 0 mm 0 mps 749 mmHg 85%
Show more